VU3ZNL-13 Weather Reports


Display with metric or nautical units.
time (UTC)temp
F
wind
direction
speed
MPH
gust
MPH
rain 1hr
in
rain 24hr
in
rain mn
in
humidity
%
barometer
mb
20260504042013 92 0.0 0.0 0.00 0.00 0.00 46
20260504040512 96 0.0 0.0 0.00 0.00 0.00 48
20260504035012 93 0.0 0.0 0.00 0.00 0.00 48
20260504033512 92 0.0 0.0 0.00 0.00 0.00 49
20260504032012 92 0.0 0.0 0.00 0.00 0.00 49
20260504030513 92 0.0 0.0 0.00 0.00 0.00 50
20260504025012 91 0.0 0.0 0.00 0.00 0.00 52
20260504023512 94 0.0 0.0 0.00 0.00 0.00 51
20260504022012 93 0.0 0.0 0.00 0.00 0.00 51
20260504020512 89 0.0 0.0 0.00 0.00 0.00 56
20260504015012 91 0.0 0.0 0.00 0.00 0.00 57
20260504013511 92 0.0 0.0 0.00 0.00 0.00 51
20260504003625 1 0.0 0.0 0.00 0.00 0.00
20260504002125 0 0.0 0.0 0.00 0.00 0.00
20260504000626 -1 0.0 0.0 0.00 0.00 0.00
20260503235125 0 0.0 0.0 0.00 0.00 0.00
20260503233625 0 0.0 0.0 0.00 0.00 0.00
20260503130442 95 0.0 0.0 0.00 0.00 0.00 40
20260503080946 95 0.0 0.0 0.00 0.00 0.00 35
20260503072445 96 0.0 0.0 0.00 0.00 0.00 37
20260503070946 97 0.0 0.0 0.00 0.00 0.00 38